Index of /authors/id/J/JE/JEFFA

[ICO]NameLast modifiedSizeDescription

[DIR]Parent Directory  -  
[   ]CHECKSUMS06-Jul-2015 20:52 6.3K 
[   ]Color-Spectrum-1.11.meta20-Jun-2015 05:57 911  
[   ]Color-Spectrum-1.11.readme20-Jun-2015 05:57 1.0K 
[   ]Color-Spectrum-1.11.tar.gz20-Jun-2015 05:58 5.7KGZIP compressed document
[   ]DBIx-HTML-0.12.meta09-Jun-2015 01:50 931  
[   ]DBIx-HTML-0.12.readme09-Jun-2015 01:50 1.6K 
[   ]DBIx-HTML-0.12.tar.gz09-Jun-2015 01:52 6.7KGZIP compressed document
[   ]DBIx-XHTML_Table-1.45.meta20-May-2015 20:36 907  
[   ]DBIx-XHTML_Table-1.45.readme20-May-2015 20:36 1.1K 
[   ]DBIx-XHTML_Table-1.45.tar.gz20-May-2015 20:37 26KGZIP compressed document
[   ]HTML-AutoTag-0.05.meta18-Jun-2015 21:47 952  
[   ]HTML-AutoTag-0.05.readme18-Jun-2015 21:47 1.1K 
[   ]HTML-AutoTag-0.05.tar.gz18-Jun-2015 21:50 8.8KGZIP compressed document
[   ]HTML-AutoTag-0.06.meta06-Jul-2015 20:26 955  
[   ]HTML-AutoTag-0.06.readme06-Jul-2015 20:26 1.1K 
[   ]HTML-AutoTag-0.06.tar.gz06-Jul-2015 20:28 9.0KGZIP compressed document
[   ]Math-Window2Viewport-0.02.meta26-Jun-2015 03:23 886  
[   ]Math-Window2Viewport-0.02.readme26-Jun-2015 03:23 1.0K 
[   ]Math-Window2Viewport-0.02.tar.gz26-Jun-2015 03:28 4.1KGZIP compressed document
[   ]Spreadsheet-HTML-0.33.meta30-Jun-2015 02:39 1.0K 
[   ]Spreadsheet-HTML-0.33.readme30-Jun-2015 02:39 2.2K 
[   ]Spreadsheet-HTML-0.33.tar.gz30-Jun-2015 02:43 29KGZIP compressed document
[   ]Spreadsheet-HTML-0.34.meta04-Jul-2015 22:33 1.0K 
[   ]Spreadsheet-HTML-0.34.readme04-Jul-2015 22:32 2.2K 
[   ]Spreadsheet-HTML-0.34.tar.gz04-Jul-2015 22:36 30KGZIP compressed document
[   ]Template-Plugin-Calendar-Simple-0.02.readme02-Jan-2004 20:42 516  
[   ]Template-Plugin-Calendar-Simple-0.02.tar.gz02-Jan-2004 20:18 2.3KGZIP compressed document
[   ]Tie-Hash-Attribute-0.07.meta22-Jun-2015 20:51 919  
[   ]Tie-Hash-Attribute-0.07.readme22-Jun-2015 20:51 1.6K 
[   ]Tie-Hash-Attribute-0.07.tar.gz22-Jun-2015 20:54 6.1KGZIP compressed document
[   ]Tie-Scalar-Sticky-1.06.readme02-Jan-2004 20:39 339  
[   ]Tie-Scalar-Sticky-1.06.tar.gz02-Jan-2004 20:20 2.7KGZIP compressed document